Location: Unspecified
(0.0000°N, 0.0000°E)
Time: 01:19:10
(UTC+00:00)

N. Korean satellite - Pass Details

Date: 22 January 2021
Orbit: 453 x 502 km, 97.2° (Epoch: 16 January)

Event Time Altitude Azimuth Distance (km) Brightness Sun altitude
Rises 04:42:20 0° 24° (NNE) 2,452 10.2 -21.0°
Reaches altitude 10° 04:44:28 10° 33° (NNE) 1,580 9.3 -20.5°
Maximum altitude 04:47:35 35° 101° (E) 743 8.1 -19.7°
Drops below altitude 10° 04:50:44 10° 169° (SSE) 1,587 9.6 -19.0°
Sets 04:52:52 0° 177° (S) 2,465 10.5 -18.5°
